Temp
49 49 50 49 50 52 52 50 50 49 49 49 48 49 49 49 49 49 50 52 52 52 51 51 51 50 51 51 51 52 52 51 51 50 49 48 47 46 44 44 40 40
48 48 48 49 49 50 52 52 51 50 50 49 49 49 50 49 49 49 49 50 51 52 52 52 51 51 51 51 51 51 51 50 50 48 48 47 47 44 44 43 41 39
47 47 48 48 49 50 51 51 52 51 50 50 50 49 48 49 48 48 49 50 49 49 51 51 51 51 51 50 50 50 50 49 49 48 47 46 46 44 45 43 41 39
46 47 48 48 49 49 50 51 51 50 50 49 48 48 48 47 48 48 47 46 48 49 49 50 50 50 50 50 49 49 49 49 49 47 46 46 45 45 44 42 40 37
46 46 47 47 47 48 49 50 50 50 49 49 49 48 46 46 46 46 46 45 45 46 48 49 49 49 49 48 48 48 47 47 47 45 45 45 45 44 43 39 38 37
45 46 47 47 46 47 48 50 50 50 50 49 49 47 46 45 44 44 44 44 45 46 46 47 47 48 47 47 45 46 46 46 46 45 45 45 44 43 41 39 38 38
44 45 45 46 45 46 47 48 50 50 50 50 48 46 45 44 43 42 43 43 44 44 45 46 46 46 45 45 45 44 44 44 44 44 44 45 43 41 40 39 39 39
44 44 45 45 45 46 45 46 48 49 48 47 46 45 44 44 43 43 43 43 43 43 43 44 44 45 44 45 44 44 43 43 42 41 42 44 42 41 39 39 39 40
43 42 43 44 44 45 44 45 47 47 46 46 45 43 43 44 43 43 43 43 43 43 44 43 43 43 42 43 44 44 44 43 42 41 41 42 41 41 40 39 38 40
40 40 40 41 42 43 44 44 46 46 44 45 45 43 42 43 43 43 43 43 42 42 43 43 43 43 43 43 44 44 44 43 43 41 41 42 41 42 41 39 39 40
39 38 39 40 41 42 43 43 44 45 44 44 44 43 43 42 42 42 42 42 42 42 42 42 43 43 43 42 43 44 44 44 42 42 42 41 40 41 39 40 40 41
38 38 39 40 40 42 42 43 44 44 44 43 44 44 43 43 42 42 42 42 42 42 43 43 43 43 43 43 43 43 43 43 43 41 40 41 41 41 38 39 39 40
38 38 39 39 40 41 41 42 43 44 44 44 43 44 43 42 42 42 42 42 42 42 43 43 43 42 42 43 43 43 43 42 41 40 40 41 41 41 40 39 40 40
39 38 38 39 39 40 40 41 42 42 43 44 43 43 42 42 43 42 42 42 42 42 42 41 41 41 42 42 42 42 42 41 40 39 38 39 39 39 40 40 41 41
38 37 37 38 38 39 39 40 40 41 42 42 42 42 43 43 43 43 42 41 41 42 42 41 41 40 41 42 41 41 40 40 40 40 40 39 40 40 40 40 40 40
38 37 37 37 38 38 39 39 39 39 40 41 42 42 42 42 42 42 42 41 41 41 41 40 40 41 39 40 41 41 41 40 40 39 40 40 40 40 40 40 39 39
37 37 36 37 38 38 39 38 38 39 38 39 40 41 41 41 41 41 41 41 41 41 40 40 40 40 39 41 42 42 40 40 40 40 40 40 40 39 39 38 39 39
37 36 36 37 37 38 38 38 37 37 37 38 38 38 40 40 40 40 41 41 41 41 41 40 40 39 41 41 42 42 41 40 41 40 39 40 40 40 40 39 38 38
37 36 36 37 37 37 37 36 36 36 36 37 37 38 39 39 40 40 40 40 40 40 40 41 40 41 41 41 41 42 42 41 40 40 39 39 39 39 39 39 38 37
36 36 36 37 37 36 36 36 35 36 37 37 37 37 37 37 38 39 40 40 40 40 40 41 41 40 41 41 41 41 41 41 40 39 39 39 39 39 39 38 38 37
36 36 36 37 36 36 35 35 36 36 36 36 37 37 36 36 37 37 38 38 39 39 39 40 40 40 41 41 41 41 41 41 40 39 39 39 39 39 39 39 38 38
36 36 36 36 36 35 35 35 36 36 36 36 36 36 37 37 37 37 37 37 38 38 38 38 40 40 40 40 40 41 41 39 39 38 37 38 38 38 38 39 38 38
36 36 36 36 35 35 35 35 35 36 36 36 35 36 36 36 36 36 37 37 37 37 37 38 38 39 40 40 40 41 40 38 37 37 36 36 37 37 37 37 37 38
36 36 36 36 35 35 36 36 36 36 36 36 36 36 36 36 36 36 36 36 36 36 37 37 37 38 39 39 40 40 39 37 37 37 35 35 35 35 35 37 37 35
36 36 36 36 36 36 36 36 36 36 36 35 35 36 36 36 36 36 36 36 36 36 36 36 37 37 38 39 39 39 39 37 37 36 34 33 33 33 35 36 36 34
35 35 35 35 35 36 35 36 36 35 34 34 35 35 35 35 35 35 35 35 36 35 36 36 36 36 36 39 39 39 39 37 37 35 33 33 32 33 32 32 33 34
MSLP
1018.98 1019.14 1019.22 1019.30 1019.30 1019.38 1019.54 1019.86 1020.06 1020.30 1020.46 1020.66 1020.70 1020.62 1020.62 1020.66 1020.90 1021.02 1021.06 1021.10 1021.14 1021.26 1021.42 1021.58 1021.74 1021.94 1022.14 1022.26 1022.42 1022.70 1022.94 1023.14 1023.42 1023.66 1023.90 1024.22 1024.50 1024.70 1024.94 1025.14 1025.46 1025.58
1018.70 1018.82 1018.94 1019.02 1019.06 1019.18 1019.26 1019.42 1019.62 1019.86 1020.10 1020.26 1020.38 1020.50 1020.50 1020.58 1020.70 1020.86 1020.86 1020.94 1020.98 1021.02 1021.10 1021.26 1021.38 1021.50 1021.74 1021.98 1022.14 1022.30 1022.58 1022.90 1023.14 1023.46 1023.74 1024.02 1024.14 1024.46 1024.46 1024.70 1025.02 1025.34
1018.46 1018.62 1018.74 1018.74 1018.78 1018.86 1019.02 1019.18 1019.34 1019.50 1019.70 1019.90 1020.14 1020.30 1020.34 1020.38 1020.42 1020.58 1020.62 1020.62 1020.74 1020.78 1020.90 1020.98 1021.02 1021.14 1021.38 1021.62 1021.86 1022.06 1022.22 1022.42 1022.66 1023.02 1023.42 1023.70 1023.90 1024.06 1024.06 1024.50 1024.82 1024.94
1018.22 1018.26 1018.38 1018.46 1018.54 1018.66 1018.82 1018.98 1019.10 1019.22 1019.34 1019.58 1019.74 1019.94 1020.14 1020.18 1020.14 1020.30 1020.42 1020.54 1020.50 1020.54 1020.58 1020.70 1020.78 1020.94 1021.10 1021.30 1021.54 1021.74 1021.86 1022.06 1022.22 1022.66 1023.02 1023.38 1023.58 1023.70 1023.94 1024.30 1024.50 1024.82
1017.94 1018.06 1018.18 1018.26 1018.34 1018.42 1018.54 1018.62 1018.70 1018.86 1018.98 1019.06 1019.38 1019.70 1019.94 1020.10 1020.06 1020.06 1020.18 1020.34 1020.34 1020.34 1020.42 1020.42 1020.50 1020.70 1020.86 1021.06 1021.26 1021.46 1021.74 1021.94 1022.18 1022.50 1022.74 1022.90 1023.10 1023.50 1023.74 1024.18 1024.30 1024.46
1017.74 1017.86 1017.86 1017.98 1018.06 1018.18 1018.22 1018.18 1018.26 1018.46 1018.58 1018.74 1018.82 1019.26 1019.54 1019.78 1019.82 1019.82 1019.94 1020.06 1020.10 1020.14 1020.18 1020.26 1020.30 1020.42 1020.62 1020.78 1021.10 1021.26 1021.50 1021.74 1021.90 1022.22 1022.42 1022.50 1022.78 1023.14 1023.42 1023.82 1023.94 1024.10
1017.42 1017.58 1017.62 1017.70 1017.82 1017.86 1017.86 1017.82 1017.94 1018.10 1018.18 1018.26 1018.66 1018.86 1019.18 1019.50 1019.62 1019.70 1019.78 1019.82 1019.86 1019.86 1019.94 1019.98 1020.06 1020.18 1020.42 1020.66 1020.86 1021.06 1021.34 1021.54 1021.70 1021.98 1022.06 1022.18 1022.54 1023.02 1023.26 1023.46 1023.50 1023.62
1017.10 1017.18 1017.30 1017.46 1017.54 1017.54 1017.58 1017.62 1017.70 1017.86 1017.98 1018.22 1018.30 1018.50 1018.90 1019.06 1019.22 1019.38 1019.50 1019.58 1019.70 1019.70 1019.78 1019.78 1019.86 1019.90 1020.02 1020.18 1020.38 1020.66 1021.06 1021.38 1021.62 1021.90 1021.98 1022.02 1022.38 1022.62 1022.98 1023.18 1023.22 1023.22
1016.82 1016.98 1017.14 1017.18 1017.26 1017.26 1017.34 1017.38 1017.50 1017.62 1017.86 1017.98 1018.10 1018.38 1018.62 1018.74 1018.90 1019.06 1019.14 1019.26 1019.34 1019.38 1019.46 1019.58 1019.58 1019.66 1019.82 1019.94 1020.02 1020.10 1020.34 1020.86 1021.22 1021.58 1021.70 1021.70 1022.10 1022.14 1022.42 1022.74 1022.98 1022.82
1016.62 1016.74 1016.90 1016.94 1016.98 1017.02 1017.10 1017.18 1017.30 1017.46 1017.74 1017.86 1017.90 1018.18 1018.34 1018.46 1018.58 1018.66 1018.86 1018.98 1019.02 1019.10 1019.18 1019.22 1019.34 1019.42 1019.54 1019.62 1019.62 1019.70 1019.86 1020.22 1020.70 1021.10 1021.30 1021.34 1021.50 1021.62 1021.90 1022.26 1022.30 1022.46
1016.46 1016.62 1016.62 1016.66 1016.70 1016.82 1016.86 1016.98 1017.06 1017.34 1017.58 1017.66 1017.74 1017.82 1017.98 1018.22 1018.38 1018.46 1018.54 1018.66 1018.70 1018.70 1018.82 1018.94 1018.98 1019.10 1019.22 1019.34 1019.42 1019.46 1019.50 1019.74 1020.14 1020.54 1020.74 1020.90 1021.10 1021.26 1021.54 1021.74 1021.78 1021.70
1016.22 1016.38 1016.34 1016.34 1016.46 1016.54 1016.58 1016.70 1016.78 1016.94 1017.22 1017.46 1017.46 1017.42 1017.70 1017.90 1017.98 1018.14 1018.18 1018.22 1018.26 1018.26 1018.30 1018.38 1018.54 1018.70 1018.78 1018.82 1018.98 1019.14 1019.26 1019.42 1019.74 1020.14 1020.34 1020.46 1020.74 1020.98 1021.30 1021.58 1021.58 1021.62
1015.86 1015.86 1015.98 1016.14 1016.22 1016.26 1016.38 1016.46 1016.54 1016.58 1016.78 1016.98 1017.26 1017.30 1017.30 1017.42 1017.54 1017.62 1017.66 1017.74 1017.78 1017.86 1017.86 1017.94 1018.10 1018.30 1018.46 1018.58 1018.66 1018.78 1018.90 1019.02 1019.30 1019.78 1020.06 1020.22 1020.38 1020.58 1020.82 1021.18 1021.34 1021.38
1015.42 1015.62 1015.74 1015.82 1015.94 1016.06 1016.10 1016.14 1016.22 1016.34 1016.38 1016.58 1016.90 1017.02 1016.94 1016.98 1017.06 1017.14 1017.22 1017.46 1017.42 1017.46 1017.50 1017.70 1017.82 1017.98 1018.06 1018.02 1018.10 1018.30 1018.54 1018.74 1018.90 1019.26 1019.62 1019.86 1020.06 1020.30 1020.54 1020.74 1020.78 1020.86
1015.10 1015.30 1015.50 1015.66 1015.78 1015.82 1015.86 1015.90 1015.98 1016.06 1016.14 1016.26 1016.42 1016.50 1016.62 1016.66 1016.70 1016.86 1017.06 1017.22 1017.18 1017.10 1017.18 1017.34 1017.50 1017.54 1017.58 1017.66 1017.78 1017.98 1018.22 1018.38 1018.50 1018.74 1018.90 1019.18 1019.46 1019.74 1019.98 1020.14 1020.30 1020.38
1014.74 1014.98 1015.14 1015.34 1015.42 1015.38 1015.42 1015.50 1015.66 1015.78 1015.90 1015.98 1015.94 1016.02 1016.22 1016.42 1016.58 1016.70 1016.74 1016.66 1016.78 1016.90 1016.90 1017.02 1017.02 1016.94 1016.94 1017.06 1017.18 1017.26 1017.46 1017.82 1018.14 1018.38 1018.62 1018.66 1018.74 1018.94 1019.26 1019.58 1019.70 1019.82
1014.58 1014.70 1014.86 1014.90 1014.78 1014.90 1015.02 1015.18 1015.30 1015.50 1015.62 1015.62 1015.62 1015.66 1015.82 1016.02 1016.34 1016.46 1016.30 1016.26 1016.38 1016.42 1016.50 1016.50 1016.46 1016.46 1016.58 1016.66 1016.70 1016.90 1017.14 1017.34 1017.50 1017.66 1017.86 1017.98 1018.10 1018.26 1018.46 1018.86 1019.18 1019.38
1014.46 1014.62 1014.66 1014.54 1014.62 1014.54 1014.62 1014.82 1015.06 1015.26 1015.26 1015.22 1015.30 1015.42 1015.38 1015.70 1015.98 1015.82 1015.90 1015.98 1015.94 1015.94 1015.90 1015.78 1015.82 1015.90 1016.18 1016.30 1016.26 1016.26 1016.38 1016.50 1016.70 1017.02 1017.34 1017.54 1017.62 1017.70 1017.82 1018.26 1018.58 1018.94
1014.14 1014.30 1014.34 1014.38 1014.34 1014.34 1014.54 1014.78 1014.90 1014.94 1014.90 1014.90 1014.86 1014.82 1015.14 1015.30 1015.18 1015.42 1015.46 1015.54 1015.58 1015.46 1015.30 1015.30 1015.42 1015.54 1015.74 1015.78 1015.90 1016.06 1016.22 1016.30 1016.22 1016.42 1016.70 1016.82 1016.98 1017.18 1017.34 1017.58 1018.02 1018.50
1014.06 1014.14 1014.06 1013.98 1014.02 1014.18 1014.34 1014.46 1014.58 1014.34 1014.22 1014.30 1014.46 1014.66 1014.74 1014.66 1014.70 1014.74 1014.82 1014.98 1014.90 1014.94 1014.90 1014.82 1014.94 1015.10 1015.30 1015.34 1015.38 1015.50 1015.66 1015.86 1015.86 1015.98 1016.14 1016.26 1016.30 1016.42 1016.66 1017.02 1017.42 1017.82
1013.90 1013.86 1013.78 1013.74 1013.86 1013.98 1014.10 1014.10 1013.94 1013.86 1014.02 1014.10 1014.22 1014.22 1014.30 1014.18 1014.14 1014.26 1014.18 1014.26 1014.42 1014.50 1014.54 1014.38 1014.26 1014.54 1014.78 1014.94 1014.98 1014.98 1015.18 1015.42 1015.42 1015.54 1015.74 1015.90 1016.06 1016.14 1016.22 1016.42 1016.78 1017.14
1013.78 1013.70 1013.62 1013.58 1013.62 1013.74 1013.78 1013.58 1013.58 1013.62 1013.66 1013.74 1013.90 1013.86 1013.90 1013.90 1013.82 1013.82 1013.70 1013.82 1013.86 1014.06 1014.10 1013.90 1013.70 1013.82 1014.06 1014.38 1014.58 1014.90 1014.90 1015.02 1015.22 1015.34 1015.34 1015.54 1015.74 1015.94 1016.22 1016.42 1016.70 1016.94
1013.70 1013.58 1013.42 1013.38 1013.38 1013.42 1013.30 1013.22 1013.30 1013.30 1013.30 1013.46 1013.62 1013.54 1013.50 1013.42 1013.30 1013.22 1013.26 1013.46 1013.46 1013.54 1013.50 1013.18 1013.10 1013.18 1013.42 1013.70 1013.98 1014.26 1014.66 1014.66 1014.62 1014.82 1014.82 1014.90 1015.14 1015.50 1015.90 1016.30 1016.54 1016.70
1013.58 1013.50 1013.30 1013.18 1013.18 1013.06 1012.90 1012.90 1012.94 1012.94 1012.98 1013.10 1013.10 1013.02 1013.06 1012.86 1012.90 1012.94 1012.94 1012.98 1013.02 1012.98 1012.86 1012.78 1012.58 1012.74 1012.90 1013.02 1013.30 1013.66 1013.94 1014.10 1014.10 1014.18 1014.14 1014.26 1014.58 1014.94 1015.22 1015.34 1015.42 1015.78
1013.38 1013.22 1013.06 1012.94 1012.86 1012.70 1012.70 1012.62 1012.54 1012.50 1012.42 1012.70 1012.74 1012.78 1012.58 1012.62 1012.78 1012.74 1012.58 1012.54 1012.50 1012.50 1012.50 1012.58 1012.34 1012.50 1012.70 1012.78 1013.06 1013.34 1013.46 1013.90 1014.22 1014.34 1014.42 1014.26 1014.54 1015.02 1015.22 1015.26 1015.34 1015.58
1013.26 1013.06 1012.78 1012.70 1012.46 1012.34 1012.34 1012.26 1012.18 1012.30 1012.34 1012.42 1012.38 1012.46 1012.38 1012.38 1012.38 1012.34 1012.30 1012.14 1012.22 1012.30 1012.26 1012.26 1012.30 1012.34 1012.54 1012.70 1012.82 1012.98 1013.34 1013.58 1013.66 1013.94 1014.02 1014.26 1014.46 1014.30 1014.58 1014.74 1014.98 1015.38
Wind_Speed
9 8 9 9 8 8 9 9 8 9 9 8 9 9 9 8 6 8 9 9 10 11 11 11 12 11 10 10 12 11 11 12 11 10 12 12 11 11 11 12 9 10
11 10 8 8 7 7 8 9 9 9 9 9 9 8 8 8 9 9 10 10 10 11 11 12 12 12 12 11 12 12 11 11 12 8 11 13 12 11 12 13 12 9
9 9 9 10 9 9 9 8 9 9 9 9 9 8 8 9 10 9 9 10 10 11 10 11 12 12 12 12 12 12 11 12 13 11 11 13 11 11 11 11 10 11
10 10 10 9 9 8 8 8 9 8 8 8 9 9 8 8 9 10 10 10 10 10 11 11 11 11 11 12 12 11 12 12 12 11 12 10 11 11 11 10 10 9
10 10 9 8 8 8 7 9 10 10 10 10 8 9 9 8 9 10 10 10 9 9 10 11 11 11 11 11 11 10 10 10 10 10 11 12 11 11 10 9 10 11
7 8 9 8 8 8 9 10 11 11 10 10 11 8 9 9 9 10 11 11 11 10 10 10 10 11 11 11 10 10 10 10 10 11 12 13 11 10 9 10 11 12
9 9 10 8 8 9 10 10 10 10 10 10 7 10 9 9 10 10 10 11 11 11 11 11 12 12 10 10 10 11 10 10 10 11 13 12 10 11 9 10 12 12
10 8 9 8 10 9 10 9 9 9 9 7 10 9 9 10 11 10 10 11 11 11 10 11 11 11 11 11 12 12 12 9 10 11 12 12 11 13 12 10 11 12
8 8 8 9 11 10 10 9 8 8 7 9 9 8 8 10 11 11 11 11 11 12 12 11 12 11 11 11 12 13 14 12 11 12 13 13 12 13 13 11 11 12
9 8 8 9 11 10 10 9 8 8 7 9 9 7 9 9 10 11 11 11 12 12 12 12 12 12 11 11 13 13 13 14 13 13 13 13 14 14 13 13 14 12
9 8 10 11 11 9 10 9 9 8 7 9 8 9 9 9 9 9 10 11 12 13 13 12 13 12 12 12 11 11 13 13 13 13 14 14 14 13 12 13 13 14
10 9 11 11 10 10 10 10 9 9 9 8 9 10 10 10 11 10 11 12 12 12 13 13 13 12 13 13 13 12 12 12 12 13 13 14 14 13 13 13 13 12
10 11 10 10 10 10 9 8 9 9 10 10 8 10 11 11 11 11 11 11 12 12 13 13 13 12 12 12 12 12 13 13 12 13 12 12 12 13 12 13 13 12
10 8 8 9 8 8 9 9 9 9 10 9 9 11 12 12 12 12 11 10 11 12 12 11 11 11 11 13 13 13 12 12 13 13 13 12 12 12 12 13 14 13
7 7 6 7 8 8 9 9 9 9 9 9 10 11 10 11 11 11 11 11 11 12 12 11 11 12 12 12 13 13 12 12 13 14 14 14 14 13 13 14 13 13
7 6 7 7 8 10 10 9 9 9 9 10 11 11 11 10 10 10 11 13 13 12 11 10 11 10 13 19 16 13 13 12 12 13 14 13 14 14 13 13 14 13
6 7 6 9 10 9 9 9 10 9 9 10 11 11 12 11 10 11 12 12 13 13 13 12 11 11 17 20 21 21 14 13 13 14 14 15 15 15 15 15 13 13
7 6 7 9 8 10 10 9 8 9 10 11 11 11 12 9 11 13 12 12 12 12 13 13 13 14 19 21 23 24 21 16 14 13 13 13 13 14 13 13 14 13
6 7 8 8 10 9 7 7 8 10 11 11 13 12 9 11 14 13 13 12 12 14 14 13 12 15 20 22 22 22 22 18 12 13 14 14 15 15 15 14 13 12
6 7 9 10 8 8 7 8 9 13 12 11 10 9 11 12 12 14 14 14 14 14 13 13 13 14 21 22 23 24 24 21 13 14 14 14 16 16 15 15 15 14
7 7 9 9 8 7 8 10 12 12 11 10 10 11 12 13 13 13 14 13 14 13 12 13 12 16 20 22 23 25 25 22 15 13 12 13 13 13 14 15 15 15
7 8 9 8 8 8 9 12 11 11 11 10 10 9 9 10 10 11 13 13 13 13 13 14 13 18 20 22 23 22 25 17 13 13 13 13 13 13 12 12 12 13
7 8 9 9 8 9 11 11 11 11 11 8 9 10 11 12 12 12 11 12 13 13 15 15 14 17 21 22 23 25 20 13 13 12 12 13 13 13 12 11 12 13
8 8 9 9 8 10 11 10 10 8 9 8 11 11 12 12 11 11 11 11 13 14 15 15 14 16 21 22 24 24 21 15 13 13 14 13 13 13 13 14 16 21
8 8 9 9 10 11 10 11 10 10 9 7 9 9 11 9 9 10 11 11 12 13 15 17 14 14 19 21 21 23 21 13 11 10 11 12 10 9 10 10 10 12
8 8 9 9 10 10 9 10 8 7 7 8 9 9 9 9 9 10 12 11 10 11 12 13 14 12 12 19 21 23 22 15 11 11 13 12 11 12 12 11 11 9
Wind_Direction
209 206 212 211 211 208 205 202 202 205 206 210 216 213 208 206 190 199 203 199 198 196 193 192 190 192 195 191 189 191 195 198 198 196 197 195 203 193 192 194 196 194
211 210 213 214 214 208 212 204 204 203 208 209 215 216 213 197 202 197 200 203 201 203 198 194 192 192 191 190 191 191 194 195 199 195 198 199 203 194 198 195 197 196
210 212 211 213 214 211 210 209 208 205 205 210 210 211 211 202 199 205 206 203 201 203 202 201 196 193 192 194 192 195 197 196 199 193 196 202 200 198 202 195 200 195
214 213 214 216 215 214 206 208 212 209 205 205 208 208 207 208 201 201 208 207 206 206 202 200 201 198 196 195 192 197 199 200 200 187 195 200 203 199 200 195 198 196
211 214 217 216 217 214 206 209 210 209 205 205 201 202 207 207 203 204 206 208 210 208 206 205 201 200 197 196 194 196 198 201 198 190 196 201 201 197 202 189 193 197
217 216 216 214 210 209 212 214 213 210 210 206 204 194 202 201 205 203 203 206 209 208 206 207 203 201 196 195 191 199 197 200 200 194 200 202 200 199 191 193 190 194
212 211 217 213 214 212 216 215 214 214 213 209 194 202 192 198 204 206 206 210 209 206 206 205 202 199 197 194 192 196 200 203 199 199 204 206 196 199 196 192 192 191
215 214 213 213 217 215 218 216 213 214 212 201 205 201 188 201 205 205 207 207 208 211 210 207 206 205 198 193 193 193 198 199 200 199 205 206 195 197 195 194 191 187
215 214 210 216 218 220 220 216 213 213 203 207 207 200 196 202 205 206 207 206 208 211 210 210 207 204 200 197 199 196 195 198 198 198 202 199 197 201 193 189 190 191
216 212 212 217 220 220 223 217 215 215 204 211 208 198 203 208 207 207 205 206 209 210 211 211 209 208 202 202 202 199 199 198 198 201 204 203 201 200 193 189 194 190
221 212 217 219 222 220 225 219 216 215 211 216 208 208 208 208 214 209 208 207 209 210 210 212 212 208 204 204 207 206 203 199 199 201 204 204 202 201 198 196 195 194
224 217 221 220 220 223 224 220 216 211 213 219 215 215 211 214 210 207 208 210 211 211 210 211 210 209 207 205 205 204 204 202 201 204 207 204 204 203 197 198 198 196
223 222 218 219 219 221 221 220 219 215 210 217 215 220 216 215 213 212 212 210 212 212 213 211 210 208 209 209 209 207 206 202 199 202 208 210 208 207 201 200 201 199
228 223 220 220 219 219 219 220 218 216 214 213 209 221 223 219 215 215 215 211 214 214 215 212 211 212 212 210 206 205 204 205 199 200 204 207 206 205 202 203 203 201
229 221 218 219 219 220 220 221 217 216 215 211 212 221 225 226 222 215 214 216 220 219 215 211 211 211 209 208 206 205 203 205 204 204 203 203 204 205 205 204 205 203
223 217 213 213 217 220 221 218 216 215 213 216 218 220 223 224 225 219 216 218 218 219 218 214 215 213 210 209 208 204 199 200 202 205 206 208 204 202 203 204 205 204
225 222 210 216 220 222 222 217 216 212 215 221 223 219 220 222 220 222 222 220 219 218 217 217 217 217 212 209 208 205 201 203 204 207 205 204 204 202 203 202 206 205
237 228 221 228 224 226 222 219 214 213 219 222 223 222 223 215 219 224 226 223 222 221 222 219 220 215 212 214 211 207 202 201 201 203 204 209 210 207 205 201 202 202
234 227 231 233 231 231 225 217 214 219 223 223 224 224 218 215 222 222 226 226 224 224 224 223 226 215 214 214 215 213 210 205 207 203 204 206 204 205 204 203 200 200
243 234 236 236 234 230 220 218 217 223 223 223 226 221 220 223 224 223 223 224 224 226 228 225 224 219 217 215 212 210 209 206 210 205 209 210 208 204 204 202 199 197
249 240 243 242 235 229 224 225 224 230 227 225 222 221 220 222 223 224 224 223 225 225 229 229 225 217 218 218 215 211 210 207 210 206 208 211 213 212 207 203 199 200
253 251 247 245 237 229 227 231 230 229 229 225 225 228 230 231 234 229 228 225 224 223 226 231 228 217 218 220 219 216 212 209 211 210 209 209 211 210 209 206 204 202
262 256 255 247 239 234 235 236 233 233 233 223 229 228 228 227 229 227 227 226 225 224 226 232 230 219 216 217 216 216 214 215 210 209 210 207 206 203 203 202 202 201
269 259 258 254 245 240 241 242 237 239 236 217 224 227 230 230 229 233 230 227 226 226 224 230 232 222 216 216 216 213 210 213 210 208 210 206 206 201 199 201 201 198
271 262 254 253 250 247 243 244 238 235 233 222 231 232 238 235 232 235 236 231 229 230 229 230 237 230 221 220 214 215 213 212 214 217 215 216 203 202 207 209 206 198
277 270 261 253 253 252 246 243 242 243 234 225 231 228 238 234 232 234 237 238 231 231 232 231 235 235 226 222 215 218 212 210 208 208 213 208 202 201 196 202 194 191